Track DUMMY SAT 2/BREEZE-M now! DUMMY SAT 2/BREEZE-M is classified as:
1 40355U 14085A 24283.33118690 -.00000107 00000-0 00000-0 0 9994 2 40355 8.7311 66.6166 0362229 339.7796 18.8586 0.94060478 33424